Location: Bacea
(45.9500°N, 22.6667°E)
Time: 09:17:29
(UTC+00:00)

Cosmos 489 Rocket - Pass Details

Date: 31 May 2022
Orbit: 952 x 983 km, 74.0° (Epoch: 02 July)

Event Time Altitude Azimuth Distance (km) Brightness Sun altitude
Rises 00:07:26 0° 344° (NNW) 3,646 8.3 -18.4°
Reaches altitude 10° 00:10:21 10° 355° (N) 2,700 7.7 -18.2°
Maximum altitude 00:15:41 29° 54° (NE) 1,700 6.4 -17.8°
Drops below altitude 10° 00:21:01 10° 113° (ESE) 2,704 6.9 -17.4°
Sets 00:23:56 0° 125° (SE) 3,653 7.4 -17.2°
